Weather History for KHYA - April, 2013

Change the Weather History Date:

Wednesday, April 24, 2013

  Actual Average Record
Temperature  
Mean Temperature 50 °F -  
Max Temperature 57 °F 56 °F 78 °F (1973)
Min Temperature 44 °F 40 °F 27 °F (1930)
Degree Days  
Heating Degree Days 14    
Moisture  
Dew Point 45 °F    
Average Humidity 89    
Maximum Humidity 100    
Minimum Humidity 69    
Precipitation  
Precipitation 0.53 in - - ()
Sea Level Pressure  
Sea Level Pressure 29.88 in    
Wind  
Wind Speed 18 mph (NW)    
Max Wind Speed 24 mph    
Max Gust Speed 40 mph    
Visibility 6 miles    
Events Rain    
Averages and records for this station are not official NWS values.
T = Trace of Precipitation, MM = Missing Value Source: NWS Daily Summary

Daily Weather History Graph

Daily Weather History Graph

Search for Another Location

Airport or City:

Trip Planner

Search our weather history database for the weather conditions in past years. The results will help you decide how hot, cold, wet, or windy it might be!

Date:

Astronomy

Apr. 24, 2013 Rise Set
Actual Time 5:47 AM EDT 7:31 PM EDT
Civil Twilight 5:17 AM EDT 8:01 PM EDT
Nautical Twilight 4:41 AM EDT 8:37 PM EDT
Astronomical Twilight 4:03 AM EDT 9:16 PM EDT
Moon 6:31 PM EDT (4/24) 4:49 AM EDT (4/24)
Length of Visible Light 14h 43m
Length of Day
13h 44m
Waxing Gibbous, 98% of the Moon is Illuminated
Apr 24
Waxing Gibbous
Apr 25
Full
May 2
Last Quarter
May 9
New
May 18
First Quarter

Hourly Weather History & Observations

Time (EDT) Temp. Windchill Dew Point Humidity Pressure Visibility Wind Dir Wind Speed Gust Speed Precip Events Conditions
12:11 AM 44.6 °F 36.6 °F 44.6 °F 100% 29.94 in 3.0 mi NNE 19.6 mph 28.8 mph 0.07 in Rain Heavy Rain
12:18 AM 44.6 °F 36.6 °F 44.6 °F 100% 29.94 in 2.5 mi NNE 19.6 mph 28.8 mph 0.11 in Rain Heavy Rain
12:44 AM 44.6 °F 37.2 °F 44.6 °F 100% 29.93 in 3.0 mi North 17.3 mph 28.8 mph 0.23 in Rain Heavy Rain
12:56 AM 44.1 °F 36.5 °F 44.1 °F 100% 29.92 in 3.0 mi North 17.3 mph 26.5 mph 0.28 in Rain Heavy Rain
1:56 AM 44.1 °F 35.9 °F 44.1 °F 100% 29.88 in 4.0 mi North 19.6 mph 28.8 mph 0.21 in Rain Rain
2:56 AM 44.1 °F 36.5 °F 43.0 °F 96% 29.84 in 5.0 mi North 17.3 mph 28.8 mph 0.02 in Rain Light Rain
3:13 AM 44.6 °F 35.9 °F 42.8 °F 93% 29.80 in 2.5 mi North 23.0 mph 31.1 mph 0.00 in Rain Light Rain
3:56 AM 44.1 °F 35.4 °F 43.0 °F 96% 29.80 in 3.0 mi North 21.9 mph 40.3 mph 0.01 in Rain Light Rain
4:56 AM 44.1 °F 36.2 °F 43.0 °F 96% 29.80 in 5.0 mi North 18.4 mph 31.1 mph 0.00 in   Overcast
5:19 AM 44.6 °F 36.6 °F 42.8 °F 93% 29.79 in 2.5 mi NNW 19.6 mph 35.7 mph 0.00 in Rain Light Rain
5:38 AM 44.6 °F 35.9 °F 42.8 °F 93% 29.79 in 1.2 mi NNW 23.0 mph 35.7 mph 0.00 in   Overcast
5:56 AM 44.1 °F 35.0 °F 43.0 °F 96% 29.79 in 1.5 mi NNW 24.2 mph 38.0 mph 0.00 in   Overcast
6:08 AM 44.6 °F 35.9 °F 42.8 °F 93% 29.78 in 2.0 mi NNW 23.0 mph 38.0 mph 0.00 in Rain Light Rain
6:56 AM 44.1 °F 35.4 °F 44.1 °F 100% 29.81 in 1.2 mi NNW 21.9 mph 35.7 mph 0.00 in Rain Light Rain
7:52 AM 44.6 °F 36.9 °F 44.6 °F 100% 29.85 in 2.5 mi NNW 18.4 mph 32.2 mph 0.01 in Rain Light Rain
7:56 AM 45.0 °F 36.9 °F 44.1 °F 97% 29.85 in 2.5 mi NNW 20.7 mph 32.2 mph 0.01 in Rain Light Rain
8:56 AM 46.0 °F 39.0 °F 45.0 °F 96% 29.88 in 3.0 mi NNW 17.3 mph 28.8 mph 0.00 in   Overcast
9:56 AM 46.9 °F - 44.1 °F 90% 29.89 in 4.0 mi NW 17.3 mph 28.8 mph N/A   Overcast
10:13 AM 48.2 °F - 44.6 °F 87% 29.89 in 10.0 mi NW 18.4 mph 28.8 mph N/A   Overcast
10:56 AM 48.9 °F - 44.1 °F 83% 29.90 in 10.0 mi NNW 15.0 mph 25.3 mph N/A   Overcast
11:56 AM 51.1 °F - 45.0 °F 80% 29.91 in 10.0 mi NNW 9.2 mph 17.3 mph N/A   Overcast
12:11 PM 51.8 °F - 46.4 °F 82% 29.91 in 10.0 mi NW 11.5 mph 18.4 mph N/A   Overcast
12:56 PM 54.0 °F - 46.9 °F 77% 29.92 in 10.0 mi WNW 4.6 mph - N/A   Overcast
1:56 PM 57.9 °F - 48.0 °F 70% 29.90 in 10.0 mi WSW 10.4 mph - N/A   Overcast
2:30 PM 55.4 °F - 46.4 °F 72% 29.89 in 10.0 mi SSW 15.0 mph - N/A   Scattered Clouds
2:56 PM 55.9 °F - 46.0 °F 69% 29.89 in 10.0 mi SSW 16.1 mph 23.0 mph N/A   Clear
3:56 PM 54.0 °F - 46.0 °F 75% 29.89 in 10.0 mi SW 18.4 mph 21.9 mph N/A   Clear
4:56 PM 54.0 °F - 46.0 °F 75% 29.90 in 10.0 mi SSW 15.0 mph 21.9 mph N/A   Clear
5:56 PM 53.1 °F - 45.0 °F 74% 29.90 in 10.0 mi SSW 16.1 mph 25.3 mph N/A   Clear
6:56 PM 51.1 °F - 45.0 °F 80% 29.91 in 10.0 mi SW 17.3 mph 25.3 mph N/A   Clear
7:56 PM 50.0 °F - 45.0 °F 83% 29.93 in 10.0 mi SSW 17.3 mph 29.9 mph N/A   Clear
8:56 PM 50.0 °F - 48.0 °F 93% 29.94 in 8.0 mi SSW 16.1 mph 25.3 mph N/A   Mostly Cloudy
9:56 PM 50.0 °F - 48.9 °F 96% 29.95 in 8.0 mi SSW 11.5 mph 20.7 mph N/A   Overcast
10:52 PM 51.8 °F - 50.0 °F 94% 29.95 in 8.0 mi SSW 13.8 mph - N/A   Overcast
10:56 PM 52.0 °F - 51.1 °F 97% 29.96 in 8.0 mi SSW 17.3 mph 25.3 mph N/A   Overcast
11:56 PM 52.0 °F - 50.0 °F 93% 29.95 in 7.0 mi SSW 16.1 mph 23.0 mph N/A   Overcast